TOURFACTS.DK  
Stats and Facts from Tour de France.

Tour de France 2018 starts in 170 days
  Riders   Stages   Teams   Summits   Yearly  


 
Search by year

 2017 - St.21:
 14824 starters.
  5132 different riders.
  635 teams.
  2232 stages.
  454 restdays.
  439589.60 km.
  5653 abandonnees.


Top 3
GC
Christopher Froome86:20:55
Rigoberto Uran86:21:49
Romain Bardet86:23:15
Climb
Warren Barguil169 pt.
Primoz Roglic80 pt.
Thomas De Gendt64 pt.
Sprint
Michael Matthews359 pt.
André Greipel234 pt.
Edvald Boasson Hagen220 pt.
Youth
Simon Yates86:27:09
Louis Meintjes86:29:15
Emanuel Buchmann86:54:16
Facts from Tour de France 1948
  |   Stages.  |   Stage winners.  |   Days in yellow  |   Average speed.  |   Route.  |   Teams.  |   All riders.  |   Rookies.  |   Withdrawls.  |  

  |   GC.  |   Polka  |   Green  |   White  |   Summits. (In tour)  |   Summits. (Points)  |   Miscellaneous.  |  

Stage 2 on 01 - 07 - 1948
         Owning:    Jean Engels    
Pick a stage:  1 2 3 4 5 6 7 8 9 10 11 12 13 14 15 16 17 18 19 20 21
  TrouvilleDinard | Dist: 259.00 km.

Average speed for all riders in stage:  33,492 km./hr.
    Place:Name:Team:Time:Km/h:
ITAVincenzo RosselloITAItaly07:29:55  +  00:00:00=34,540 
FRALouison BobetFRAFrance07:29:55  +  00:00:00=34,540 
BELJean EngelsBELAiglons Belges07:29:55  +  00:00:00=34,540 
4 FRALucien TeisseireFRAFrance07:30:51  +  00:00:56=34,468 
5 BELLucien MathysBELAiglons Belges07:30:51  +  00:00:56=34,468 
6 FRARobert DesbatsFRACenter-South West07:30:51  +  00:00:56=34,468 
7 FRAAndré BruléFRAParis07:30:51  +  00:00:56=34,468 
8 FRAJacques PrasFRACenter-South West07:30:51  +  00:00:56=34,468 
9 ITAGino SciardisINTInternations07:30:51  +  00:00:56=34,468 
10 BELAlbert RamonBELBelgium07:30:51  +  00:00:56=34,468 
11 BELMarcel DupontBELAiglons Belges07:30:51  +  00:00:56=34,468 
12 BELRoger LambrechtINTInternations07:30:51  +  00:00:56=34,468 
13 ITAFermo CamelliniINTInternations07:30:51  +  00:00:56=34,468 
14 FRAPierre MolinerisFRASouth-East07:30:51  +  00:00:56=34,468 
15 BELMaurice MeersmanBELAiglons Belges07:30:51  +  00:00:56=34,468 
16 BELBriek SchotteBELBelgium07:30:51  +  00:00:56=34,468 
17 FRARaphaël GeminianiFRACenter-South West07:30:51  +  00:00:56=34,468 
18 FRAGeorges MartinFRASouth-East07:30:51  +  00:00:56=34,468 
19 FRARaymond GoussotFRAParis07:30:51  +  00:00:56=34,468 
20 FRALucien LaukFRAParis07:31:28  +  00:01:33=34,421 
21 FRALouis ThiétardFRAParis07:31:28  +  00:01:33=34,421 
22 FRABernard GauthierFRASouth-East07:31:28  +  00:01:33=34,421 
23 BELLeon JomauxBELAiglons Belges07:32:58  +  00:03:03=34,307 
24 ITAAntonio BevilacquaITAItaly07:33:42  +  00:03:47=34,252 
25 FRAJean ReyFRASouth-East07:33:50  +  00:03:55=34,242 
26 BELMaurice MollinBELAiglons Belges07:34:23  +  00:04:28=34,200 
27 FRAJean RobicFRAFrance07:34:23  +  00:04:28=34,200 
28 FRARobert ChapatteFRAParis07:34:23  +  00:04:28=34,200 
29 FRAPaul GiguetFRAFrance07:34:23  +  00:04:28=34,200 
30 FRAGuy LapébieFRACenter-South West07:34:23  +  00:04:28=34,200 
31 FRAMaurice CarpentierFRAWest07:34:23  +  00:04:28=34,200 
32 FRAGeorges RamouluxFRACenter-South West07:34:23  +  00:04:28=34,200 
33 FRARené ViettoFRAFrance07:34:23  +  00:04:28=34,200 
34 ITAAldo RonconiITACadetti Italiens07:34:23  +  00:04:28=34,200 
35 FRAMaurice De MuerFRAIle De France-North East07:34:23  +  00:04:28=34,200 
36 ITAVittorio MagniITACadetti Italiens07:34:23  +  00:04:28=34,200 
37 FRAPierre CoganFRAWest07:34:23  +  00:04:28=34,200 
38 ITAUmberto DreiITACadetti Italiens07:34:23  +  00:04:28=34,200 
39 BELAndré RosseelBELAiglons Belges07:34:23  +  00:04:28=34,200 
40 BELRik RendersBELAiglons Belges07:34:23  +  00:04:28=34,200 
41 FRALucien LaukFRAParis07:34:23  +  00:04:28=34,200 
42 FRAEmile IdéeFRAFrance07:34:23  +  00:04:28=34,200 
43 ITAÉdouard FachleitnerFRAFrance07:34:23  +  00:04:28=34,200 
44 ITAGino BartaliITAItaly07:34:23  +  00:04:28=34,200 
45 BELFlorent MathieuBELBelgium07:34:23  +  00:04:28=34,200 
46 SUIPierre BrambillaINTInternations07:34:23  +  00:04:28=34,200 
47 FRAAmédée RollandFRASouth-East07:34:23  +  00:04:28=34,200 
48 LUXJean KirchenINTHolland-Luxembourg07:34:23  +  00:04:28=34,200 
49 BELStan OckersBELBelgium07:34:23  +  00:04:28=34,200 
50 FRARaoul RemyFRASouth-East07:34:23  +  00:04:28=34,200 
51 BELEdward Van DijckBELBelgium07:34:23  +  00:04:28=34,200 
52 NEDCor BakkerINTHolland-Luxembourg07:34:23  +  00:04:28=34,200 
53 NEDHenk de HoogINTHolland-Luxembourg07:34:23  +  00:04:28=34,200 
54 BELRaymond ImpanisBELBelgium07:34:23  +  00:04:28=34,200 
55 GEREdouard KlabinskiINTInternations07:34:23  +  00:04:28=34,200 
56 ITAGiuseppe TaccaINTInternations07:34:23  +  00:04:28=34,200 
57 BELAndré DeclerckBELBelgium07:34:23  +  00:04:28=34,200 
58 FRARobert MignatFRAParis07:34:23  +  00:04:28=34,200 
59 FRAKléber PiotFRAParis07:34:23  +  00:04:28=34,200 
60 ITAPrimo VolpiITAItaly07:34:23  +  00:04:28=34,200 
61 ITABruno PasquiniITAItaly07:34:23  +  00:04:28=34,200 
62 ITAEgidio FeruglioITAItaly07:34:23  +  00:04:28=34,200 
63 ITAGuido De SantiITAItaly07:34:23  +  00:04:28=34,200 
64 ITAGiordano CotturITAItaly07:34:23  +  00:04:28=34,200 
65 ITAGiovanni CorrieriITAItaly07:34:23  +  00:04:28=34,200 
66 ITASerifano BiagioniITAItaly07:34:23  +  00:04:28=34,200 
67 ITAUrbain CaffiFRAIle De France-North East07:34:58  +  00:05:03=34,156 
68 NEDJoseph JanssenINTHolland-Luxembourg07:35:01  +  00:05:06=34,153 
69 SUIRoger AeschlimannINTInternations07:35:01  +  00:05:06=34,153 
70 GERCésar MarcelakFRAIle De France-North East07:35:23  +  00:05:28=34,125 
71 FRARaymond GueganFRAWest07:36:10  +  00:06:15=34,066 
72 FRAJacques MarinelliFRAParis07:36:10  +  00:06:15=34,066 
73 BELRené MertensBELBelgium07:41:44  +  00:11:49=33,656 
74 MEXAttilio LambertiniITACadetti Italiens07:41:44  +  00:11:49=33,656 
75 FRAYvan MarieFRAWest07:43:01  +  00:13:06=33,563 
76 BELFlorent RondeléBELAiglons Belges07:45:04  +  00:15:09=33,415 
77 FRARoger LevequeFRACenter-South West07:46:16  +  00:16:21=33,329 
78 FRAJean-Marie GoasmatFRAWest07:48:08  +  00:18:13=33,196 
79 FRAMaurice DiotFRAParis07:49:55  +  00:20:00=33,070 
80 FRARoger ChupinFRAWest07:49:55  +  00:20:00=33,070 
81 FRALouis DeprezFRAIle De France-North East07:49:55  +  00:20:00=33,070 
82 FRAAlphonse De VreeseFRAIle De France-North East07:49:55  +  00:20:00=33,070 
83 FRAJean De GribaldyFRAIle De France-North East07:53:53  +  00:23:58=32,793 
84 ITAVittorio SeghezziITACadetti Italiens07:53:55  +  00:24:00=32,791 
85 ITAEnzo CoppiniITACadetti Italiens07:53:55  +  00:24:00=32,791 
86 FRARobert BonnaventureFRAWest07:54:00  +  00:24:05=32,785 
87 NEDWim De RuyterINTHolland-Luxembourg07:55:12  +  00:25:17=32,702 
88 FRAFrancois HelaryFRAIle De France-North East08:03:34  +  00:33:39=32,136 
89 FRAPaul MayeFRACenter-South West08:03:34  +  00:33:39=32,136 
90 BELAdolf VerschuerenBELAiglons Belges08:03:34  +  00:33:39=32,136 
91 LUXWilly KempINTHolland-Luxembourg08:04:10  +  00:34:15=32,096 
92 NEDBernard FrankenINTHolland-Luxembourg08:04:16  +  00:34:21=32,090 
93 NEDFrans PauwelsINTHolland-Luxembourg08:04:16  +  00:34:21=32,090 
94 BELNorbert CallensBELBelgium08:04:24  +  00:34:29=32,081 
95 FRAFrançois PersonFRAWest08:04:24  +  00:34:29=32,081 
96 LUXHenri AckermannINTHolland-Luxembourg08:04:24  +  00:34:29=32,081 
97 LUXRené BieverINTHolland-Luxembourg08:04:24  +  00:34:29=32,081 
98 FRAEdouard MullerFRAIle De France-North East08:04:24  +  00:34:29=32,081 
99 ALGMaurice LauzeFRASouth-East08:04:24  +  00:34:29=32,081 
100 BELVictor JolyINTInternations08:04:24  +  00:34:29=32,081 
101 FRADaniel ThuayreFRAIle De France-North East08:04:24  +  00:34:29=32,081 
102 FRAPierre BaratinFRAIle De France-North East08:04:24  +  00:34:29=32,081 
103 FRAJean-Apotre LazaridesFRAFrance08:04:24  +  00:34:29=32,081 
104 FRADaniel OrtsFRACenter-South West08:04:24  +  00:34:29=32,081 
105 ITAAlfred MacorigFRACenter-South West08:04:24  +  00:34:29=32,081 
106 FRAHenri MassalFRACenter-South West08:04:24  +  00:34:29=32,081 
107 FRACamille DanguillaumeFRAFrance08:05:33  +  00:35:38=32,005 
108 FRARoger PontetFRAWest08:05:49  +  00:35:54=31,987 
109 FRAMarius BonnetFRASouth-East08:07:52  +  00:37:57=31,853 
110 FRAEloi TassinFRAWest08:08:54  +  00:38:59=31,786 
111 FRAVictor PernacFRASouth-East08:22:58  +  00:53:03=30,897 
112 ITAPaul NeriINTInternations08:35:25  +  01:05:30=30,150 
113 FRALouis CaputFRAFrance08:45:11  +  01:15:16=29,590 
114 ITANello SforacchiITACadetti Italiens08:45:11  +  01:15:16=29,590 

Withdrawls: 3
 
Rider
Team
Reason
8  BELEmiel RogiersBELBelgiumDid not finish
21  SUIGeorges AeschlimannINTInternationsDid not finish
61  ITAOreste ConteITACadetti ItaliensDid not finish

Todays birthdays.

1874  Pierre Cnops
1888  Paul Boillat
1911  Roger Lapebie
1940  Angelo Ottaviani
1944  Pieter Nassen
1956  Serge Demierre
1957  Erwin Lienhard
1959  Jean-Marie Grezet
1960  Ludo De Keulenaer
1961  Dirk De Wolf
1961  Carlos Jaramillo
1980  Lars Bak